| time (UTC) | temp C | wind direction | speed KPH | gust KPH | rain 1hr cm | rain 24hr cm | rain mn cm | humidity % | barometer mb |
| 20260505011549 | 6 | 236 | 0.0 | 8.0 | 0.00 | 1.27 | 1.22 | 88 | 1006.8 |
| 20260505010043 | 6 | 224 | 3.2 | 8.0 | 0.00 | 1.27 | 1.22 | 88 | 1006.4 |
| 20260505004544 | 6 | 229 | 1.6 | 8.0 | 0.00 | 1.30 | 1.22 | 85 | 1006.3 |
| 20260505003038 | 7 | 248 | 3.2 | 9.7 | 0.00 | 1.30 | 1.22 | 83 | 1006.1 |
| 20260505001539 | 7 | 223 | 4.8 | 9.7 | 0.00 | 1.30 | 1.22 | 82 | 1005.9 |
| 20260505000035 | 7 | 263 | 8.0 | 17.7 | 0.00 | 1.30 | 1.22 | 81 | 1005.8 |
| 20260504234533 | 7 | 227 | 9.7 | 22.5 | 0.00 | 1.40 | 1.22 | 80 | 1005.6 |
| 20260504233054 | 8 | 157 | 8.0 | 24.1 | 0.00 | 1.40 | 1.22 | 79 | 1005.4 |
| 20260504231541 | 8 | 242 | 9.7 | 22.5 | 0.00 | 1.40 | 1.22 | 79 | 1005.2 |
| 20260504230039 | 8 | 245 | 11.3 | 22.5 | 0.00 | 1.40 | 1.22 | 78 | 1005.2 |
| 20260504224538 | 8 | 204 | 9.7 | 22.5 | 0.00 | 1.50 | 1.22 | 77 | 1005.0 |
| 20260504223036 | 8 | 292 | 9.7 | 22.5 | 0.00 | 1.50 | 1.22 | 76 | 1004.9 |
| 20260504221546 | 9 | 249 | 12.9 | 24.1 | 0.00 | 1.50 | 1.22 | 77 | 1004.7 |
| 20260504220056 | 9 | 295 | 9.7 | 22.5 | 0.00 | 1.50 | 1.22 | 79 | 1004.6 |
| 20260504214542 | 8 | 265 | 9.7 | 29.0 | 0.00 | 1.83 | 1.22 | 78 | 1004.5 |
| 20260504213038 | 9 | 266 | 11.3 | 29.0 | 0.00 | 1.83 | 1.22 | 76 | 1004.5 |
| 20260504211535 | 9 | 293 | 14.5 | 33.8 | 0.00 | 1.83 | 1.22 | 73 | 1004.6 |
| 20260504210044 | 10 | 253 | 14.5 | 29.0 | 0.00 | 1.83 | 1.22 | 70 | 1004.5 |
| 20260504204557 | 10 | 261 | 14.5 | 37.0 | 0.00 | 2.03 | 1.22 | 68 | 1004.3 |
| 20260504203038 | 10 | 229 | 16.1 | 29.0 | 0.00 | 2.03 | 1.22 | 63 | 1004.1 |
| 20260504201538 | 11 | 229 | 12.9 | 45.1 | 0.00 | 2.03 | 1.22 | 56 | 1004.1 |
| 20260504200043 | 11 | 282 | 14.5 | 30.6 | 0.00 | 2.03 | 1.22 | 57 | 1004.0 |
| 20260504194544 | 12 | 270 | 16.1 | 32.2 | 0.00 | 2.34 | 1.22 | 55 | 1003.5 |
| 20260504193042 | 11 | 219 | 14.5 | 35.4 | 0.00 | 2.34 | 1.22 | 58 | 1003.5 |
| 20260504191541 | 12 | 237 | 12.9 | 35.4 | 0.00 | 2.34 | 1.22 | 55 | 1003.4 |
| 20260504190039 | 12 | 257 | 20.9 | 40.2 | 0.00 | 2.34 | 1.22 | 52 | 1003.3 |
| 20260504184538 | 11 | 288 | 17.7 | 43.5 | 0.00 | 2.67 | 1.22 | 56 | 1003.4 |
| 20260504183040 | 10 | 279 | 17.7 | 41.8 | 0.00 | 2.67 | 1.22 | 62 | 1003.6 |
| 20260504181545 | 10 | 248 | 19.3 | 38.6 | 0.00 | 2.67 | 1.22 | 61 | 1003.6 |
| 20260504180039 | 10 | 266 | 24.1 | 45.1 | 0.00 | 2.67 | 1.22 | 59 | 1003.7 |
| 20260504174538 | 11 | 245 | 19.3 | 38.6 | 0.00 | 2.87 | 1.22 | 58 | 1003.6 |
| 20260504173039 | 10 | 267 | 24.1 | 43.5 | 0.00 | 2.87 | 1.22 | 60 | 1003.5 |
| 20260504171539 | 10 | 270 | 20.9 | 43.5 | 0.00 | 2.87 | 1.22 | 61 | 1003.6 |
| 20260504081549 | 2 | 248 | 16.1 | 29.0 | 0.08 | 2.62 | 0.79 | 93 | 994.2 |
| 20260504044540 | 0 | 271 | 11.3 | 27.4 | 0.18 | 2.08 | 0.25 | 94 | 988.0 |
| 20260504043046 | 1 | 267 | 14.5 | 27.4 | 0.15 | 2.06 | 0.20 | 94 | 987.6 |
| 20260504041544 | 1 | 295 | 14.5 | 35.4 | 0.10 | 1.98 | 0.15 | 93 | 987.1 |
| 20260504040047 | 1 | 292 | 16.1 | 32.2 | 0.08 | 1.96 | 0.10 | 93 | 986.6 |
| 20260504034540 | 1 | 288 | 14.5 | 33.8 | 0.08 | 1.91 | 0.08 | 93 | 986.2 |
| 20260504033040 | 2 | 271 | 14.5 | 38.6 | 0.08 | 1.88 | 0.05 | 92 | 985.7 |
| 20260504031551 | 2 | 302 | 20.9 | 37.0 | 0.05 | 1.88 | 0.03 | 93 | 985.4 |
| 20260504030043 | 2 | 266 | 19.3 | 35.4 | 0.00 | 1.83 | 0.00 | 92 | 984.9 |
| 20260504024545 | 2 | 311 | 19.3 | 32.2 | 0.03 | 1.83 | 1.83 | 92 | 984.6 |
| 20260504023040 | 3 | 310 | 16.1 | 37.0 | 0.00 | 1.80 | 1.80 | 92 | 983.8 |
| 20260504021543 | 3 | 338 | 20.9 | 43.5 | 0.00 | 1.80 | 1.80 | 92 | 983.6 |
| 20260504020124 | 3 | 333 | 20.9 | 35.4 | 0.00 | 1.80 | 1.80 | 93 | 983.9 |
| 20260504014559 | 3 | 305 | 11.3 | 38.6 | 0.00 | 1.78 | 1.78 | 93 | 984.4 |
| 20260504013055 | 3 | 302 | 14.5 | 35.4 | 0.00 | 1.78 | 1.78 | 93 | 984.2 |